Погода в Танги

Россия / Сахалинская область     51°14′24″N   142°11′20″E
темп.,
°C
ветер,
м/с
пор.,
м/с
влажн.,
%
обл.,
%
осадки,
мм/ч
давл.,
гПа
погр.,
м
27 октября, ср
ср2723:00+5ю41180100 0.0 1012250
02:00+4ю410815 0.0 1010234
05:00+4ю411845 0.0 1009277
08:00+3ююв38905 0.0 1009198
11:00+7ю3877100 0.0 1009349
14:00+10ююз4874100 0.0 1007666
17:00+8ю258299 0.0 1007210
20:00+5вюв2189100 0.0 100821
28 октября, чт
чт2823:00+6юз1192100 0.7 100840
02:00+5сз2498100 1.0 1009223
05:00+4ссз2797100 1.4 1010543
08:00+4ссз3997100 0.3 1012759
11:00+4ссз41093100 0.6 1014798
14:00+5с4887100 0.1 1015906
17:00+5с4983100 0.3 1016929
20:00+4с51082100 0.1 1018846
29 октября, пт
пт2923:00+3с498299 0.1 1020751
02:00+3с3882100 0.0 1020548
05:00+3с278077 0.0 1021467
08:000ссв22865 0.0 102352
11:00+4ссз12715 0.0 1024331
14:00+5з21654 0.0 1023587
17:00+4юз12742 0.0 1023219
20:00+1ю22850 0.0 102337
30 октября, сб
сб3023:00+1ююв23830 0.0 102260
02:00+1ю36810 0.0 1021132
05:00+2ю411825 0.0 1020303
08:00+2ю39897 0.0 1020253
11:00+6ююз5108296 0.0 1019534
14:00+7юз5880100 0.0 1018550
17:00+5зюз2584100 0.0 1018358
20:00+3ссз3592100 0.2 1020308
31 октября, вс
вс3123:000ссв61193100 1.8 1022678
02:00−1с3986100 0.4 1025890
05:00−2с268672 0.4 1027344
08:00−3ссз38725 0.0 1028403
11:00−1сз58558 0.0 10281477
14:000сз6952100 0.0 10281784
17:000сз585199 0.1 10281768
20:00−2ссз385622 0.0 1030408